User: anonymous
Location: Montr�al
(45.5000°N, 73.5830°W)
Time: 01:22:32
(UTC-04:00)
Language:

Cosmos 2369 - Orbit

View from above orbital plane
View from above orbital plane
View from above satellite
View from above satellite

Ground track
Ground track

The orbit data is extracted from the following two-line orbital elements,

1 26069U 00006A   14293.11372231  .00000477  00000-0  27965-3 0  3790
2 26069 070.9957 233.2045 0012806 262.0114 184.8707 14.13244131758924
Epoch (UTC): 20 October 2014 02:43:45
Eccentricity: 0.0012806
inclination: 70.9957°
perigee height: 839 km
apogee height: 857 km
right ascension of ascending node: 233.2045°
argument of perigee: 262.0114°
revolutions per day: 14.13244131
mean anomaly at epoch: 184.8707°
orbit number at epoch: 75892

The dashed part of the orbit path shows where the satellite is in the earth's shadow,  

DLR